Theta_e
312 312 312 311 310 312 312 313 313 315 317 318 318 317 317 317 316 320 323 320 319 329 329 336 337 340 345 343 344 343 337 337 338 341 350 350 350 351 348 354 355 353 349 351 350
310 310 311 311 310 311 311 311 312 314 318 317 318 318 316 316 322 323 321 318 318 326 331 331 337 341 340 339 342 339 335 336 340 341 347 349 350 352 353 358 360 357 354 352 349
308 307 308 310 310 310 310 310 311 315 318 318 319 318 315 316 327 323 320 318 323 325 327 326 338 339 335 332 336 334 335 343 347 347 348 350 351 349 351 353 357 359 357 352 349
305 306 305 307 308 309 309 309 313 317 318 317 318 315 314 324 322 325 323 318 322 329 327 328 337 333 331 332 332 336 347 347 350 348 347 347 348 355 355 355 356 354 353 352 351
303 305 305 304 306 308 308 309 318 319 317 317 315 313 318 325 323 323 321 317 321 329 326 334 335 331 331 331 333 342 349 351 350 347 346 344 349 357 359 356 355 355 355 354 352
303 304 305 304 306 307 307 313 321 318 316 311 310 311 325 323 324 332 332 321 329 327 326 335 331 330 330 331 334 345 349 349 346 342 342 344 348 347 359 357 357 356 356 355 353
303 303 305 305 305 306 308 318 318 314 311 310 309 321 325 323 331 329 333 322 324 325 329 332 330 329 330 336 341 348 351 351 346 348 343 341 346 353 358 358 357 356 357 356 355
303 303 304 305 304 305 308 319 315 313 312 312 318 327 326 323 331 326 325 325 325 329 331 331 328 328 330 336 344 344 344 347 348 348 346 351 349 353 353 355 357 357 357 357 356
303 304 304 305 305 305 310 318 314 316 314 316 330 331 330 328 331 326 324 325 326 330 330 326 327 329 333 334 337 341 340 340 347 349 349 349 348 351 350 350 353 355 356 356 356
303 304 304 305 305 306 317 318 318 323 324 325 329 333 329 328 327 325 325 325 329 330 329 329 329 329 330 333 334 335 337 339 341 346 349 348 351 349 349 348 350 352 353 354 354
303 304 304 305 305 306 320 324 332 332 330 332 332 329 327 326 327 326 326 326 328 328 328 330 331 330 329 330 330 330 332 337 338 342 345 347 354 349 348 349 347 347 352 352 352
303 303 304 305 306 307 319 330 331 329 331 328 329 329 329 326 327 327 328 327 327 326 327 327 329 329 329 330 329 329 330 332 340 344 346 353 354 353 349 345 348 347 351 351 352
303 303 304 305 307 317 320 319 326 326 330 330 329 329 328 327 326 326 328 328 327 326 327 326 327 329 329 329 330 331 331 332 337 348 347 353 356 360 353 352 349 351 350 352 353
303 304 304 305 314 315 318 327 322 327 331 329 326 328 328 326 325 325 327 327 326 326 327 329 328 328 329 330 331 332 333 333 335 350 344 349 343 361 357 357 354 351 354 353 354
303 304 304 305 311 315 322 319 324 326 331 326 328 327 327 326 326 327 327 327 326 328 329 330 328 329 330 330 331 334 338 339 341 348 347 355 348 342 354 358 355 353 351 351 352
304 304 304 313 313 312 315 321 328 330 327 327 325 327 327 327 327 328 328 327 328 328 329 330 330 330 330 330 330 338 343 343 343 339 342 337 343 335 342 352 351 352 353 353 352
304 305 306 309 314 316 318 331 336 330 327 326 324 326 327 326 326 327 329 328 328 329 331 330 329 330 331 332 334 335 335 335 336 336 335 337 339 336 336 348 347 350 353 353 351
304 305 310 308 314 312 315 330 336 328 327 329 325 325 326 326 326 328 328 329 329 330 330 331 332 330 331 331 332 332 331 331 333 332 330 340 334 337 343 343 342 347 350 352 351
305 312 313 316 313 315 323 331 332 328 332 331 326 325 326 326 326 327 329 329 329 329 330 330 330 330 330 331 332 332 332 331 332 330 330 331 336 339 342 343 344 348 351 354 349
310 312 314 319 320 316 326 328 330 330 331 329 330 326 326 326 326 327 329 329 329 328 329 330 331 330 330 331 331 333 332 332 331 334 335 332 331 332 337 337 344 346 351 354 349
311 313 320 320 320 318 327 329 329 327 327 330 331 330 327 326 327 327 329 328 328 328 329 329 330 333 332 332 331 332 333 334 333 334 334 334 332 335 334 335 338 346 350 353 348
315 314 320 319 323 323 327 329 324 327 326 327 329 330 329 327 327 328 328 329 327 328 328 329 330 332 331 332 333 332 332 334 336 341 335 334 332 335 334 336 337 340 349 350 351
318 316 321 322 326 330 330 329 327 326 326 326 329 329 329 330 330 328 328 329 328 328 329 330 329 331 333 334 333 334 334 334 334 335 336 335 334 338 337 340 341 341 346 351 352
321 323 326 326 327 329 329 329 328 325 326 325 327 329 331 331 333 332 331 332 332 331 333 332 330 331 330 332 331 334 334 334 334 336 336 336 335 334 337 338 338 342 346 348 351
321 325 323 327 328 327 326 328 328 328 327 327 329 329 332 333 332 332 332 334 333 337 333 332 335 333 331 330 331 332 334 334 335 334 336 334 336 337 336 336 338 337 339 346 347
320 321 321 325 324 324 321 328 326 327 328 327 330 331 332 333 335 333 332 335 335 335 336 336 338 337 333 332 331 331 332 334 334 334 336 335 334 331 331 332 332 333 337 342 346
312 313 318 316 325 325 327 327 326 326 327 327 330 333 331 334 331 332 332 334 333 338 337 338 339 341 336 335 334 336 335 335 335 336 334 333 333 331 331 332 333 337 338 339 342
Wind_Speed
24 24 24 25 26 26 26 26 27 24 18 15 16 15 13 10 8 5 10 6 9 12 9 10 10 10 8 6 4 4 5 7 8 8 10 12 12 8 8 12 5 3 12 25 27
23 25 25 25 26 27 28 27 29 25 17 14 15 15 10 8 6 16 11 11 11 16 12 13 11 10 8 4 3 7 5 9 6 7 11 7 8 10 9 11 11 13 19 28 28
24 25 26 26 27 28 30 30 31 24 16 13 14 13 5 4 8 8 13 14 13 18 8 9 5 9 6 5 4 1 11 6 6 6 11 12 10 6 6 8 10 16 22 23 25
25 26 27 27 27 29 30 34 29 19 13 11 12 7 3 2 5 4 4 23 16 15 8 9 8 9 6 8 4 7 8 10 10 10 11 13 13 15 15 12 15 19 20 20 18
27 25 28 29 29 29 31 34 24 17 10 9 7 4 3 8 9 1 3 22 17 13 12 11 9 7 8 9 8 13 12 11 10 10 13 14 15 13 16 16 19 19 17 15 13
30 27 27 30 30 30 32 30 19 10 4 4 3 7 4 11 2 2 9 20 18 17 12 9 5 5 8 10 4 10 14 14 12 13 15 16 12 12 12 15 16 15 15 13 12
30 31 27 29 31 31 32 22 12 4 4 2 7 5 6 1 1 4 15 20 17 15 11 5 5 8 10 12 12 16 16 11 12 8 15 15 14 15 13 13 14 14 12 11 11
30 32 28 28 32 31 30 14 6 4 2 6 6 1 4 3 3 11 12 13 14 9 5 6 3 5 3 15 10 12 14 11 10 13 7 8 12 11 13 12 12 13 11 10 10
29 31 30 27 31 31 24 8 4 2 1 4 1 4 6 5 8 13 14 16 15 10 8 4 6 5 9 14 12 13 12 11 13 13 2 9 14 13 12 11 12 11 11 10 10
30 30 31 27 28 31 14 4 2 2 0 4 7 5 5 10 11 12 11 14 14 12 8 9 8 10 12 14 13 15 11 12 12 14 8 5 12 14 13 13 13 11 10 10 10
31 30 32 26 28 29 6 3 4 5 8 9 2 3 8 11 14 12 14 16 13 15 13 12 12 15 17 17 11 13 16 12 10 5 10 6 12 14 14 12 12 13 12 11 11
32 30 33 27 30 20 3 7 3 5 10 10 12 8 6 12 13 15 17 15 16 17 16 10 17 17 12 7 11 12 12 11 6 6 11 8 11 12 12 14 12 12 13 12 12
32 32 33 29 26 4 7 13 3 2 6 4 10 9 14 13 18 20 19 13 19 20 17 16 19 12 12 13 15 14 15 12 13 9 11 8 10 12 13 11 11 11 11 11 12
31 33 33 32 5 8 7 3 10 7 5 11 10 9 11 16 13 21 24 14 10 18 20 13 11 14 16 16 14 14 10 13 15 14 12 16 10 18 17 16 16 16 14 13 13
32 33 32 23 13 7 1 4 4 6 5 10 13 13 20 22 20 17 22 10 19 13 10 12 15 14 14 14 10 6 8 9 12 17 7 13 9 3 16 18 20 18 18 16 15
33 34 34 8 7 15 11 7 4 7 7 8 10 15 20 18 21 22 15 11 2 13 14 12 6 11 8 6 6 13 13 7 8 7 10 12 12 12 10 18 19 19 19 18 16
35 30 26 11 4 3 6 5 7 9 4 8 14 21 23 15 19 20 21 18 11 14 14 10 14 9 17 14 11 13 15 8 9 8 10 5 7 13 2 5 13 19 21 20 18
37 30 16 17 6 11 9 7 9 6 9 3 7 20 21 19 18 23 20 18 14 14 17 16 13 14 14 12 12 17 15 6 7 9 6 3 7 6 2 4 11 11 18 20 19
32 9 8 7 13 5 8 9 9 6 3 3 10 15 18 18 11 18 20 20 18 15 8 14 12 12 14 8 10 11 10 5 1 3 8 7 6 9 8 8 9 11 13 21 19
16 8 9 5 9 10 9 13 8 4 6 3 9 17 21 20 15 19 20 21 18 16 14 9 11 14 8 9 4 8 11 9 9 6 9 6 6 3 5 7 8 13 15 18 19
5 5 4 5 14 7 12 15 12 10 7 4 4 9 17 19 21 22 20 12 19 18 14 13 12 10 10 12 15 8 11 8 5 5 7 6 3 6 2 2 4 9 14 17 21
5 5 3 10 8 10 13 11 3 9 6 8 5 8 11 17 20 19 21 18 13 11 14 18 11 12 16 5 6 15 18 16 10 11 6 7 8 4 4 3 3 4 11 16 20
5 4 1 8 8 10 11 10 9 7 6 4 5 3 2 12 14 19 17 7 11 14 11 13 11 14 12 9 5 11 11 13 16 10 7 8 3 6 3 4 4 7 10 13 17
4 3 4 6 4 6 10 12 10 3 5 5 8 6 6 8 5 12 12 8 10 13 7 8 15 18 16 18 14 18 15 17 16 13 11 11 13 10 5 7 7 8 10 13 16
2 3 4 3 6 3 4 2 10 7 2 2 6 6 6 7 9 8 10 13 10 7 8 11 12 15 20 17 14 15 18 19 20 17 15 12 7 11 8 11 10 10 8 14 17
5 4 2 1 2 6 3 3 3 2 2 4 4 3 6 8 5 5 5 5 7 9 10 6 9 9 15 12 15 14 17 17 18 12 9 9 11 8 7 11 13 14 12 13 17
6 3 5 3 1 5 2 0 2 4 3 2 6 7 6 4 9 9 7 7 5 4 9 8 7 8 14 11 10 15 14 16 12 10 10 9 8 10 13 13 14 14 13 12 14
Wind_Direction
353 351 352 351 349 348 346 340 336 332 320 308 306 306 300 294 298 267 245 237 198 195 165 167 199 209 223 247 253 270 221 113 111 125 126 140 130 97 101 112 83 112 139 137 156
353 348 346 347 345 344 341 336 333 327 315 302 298 301 297 293 280 251 235 221 198 183 179 190 191 198 214 213 200 255 92 60 12 83 122 128 106 122 133 125 100 110 112 140 153
352 348 343 343 342 341 338 334 331 322 310 294 292 291 284 297 266 235 201 205 182 177 209 219 209 228 212 206 155 99 79 129 87 86 116 119 102 103 148 98 138 143 140 147 157
352 347 345 340 339 340 336 335 330 319 306 284 281 267 225 242 227 97 163 189 185 181 201 203 209 204 196 172 144 126 75 102 96 123 127 101 99 70 62 67 108 136 141 149 161
346 347 344 342 338 338 337 335 331 317 302 277 258 219 153 215 250 248 182 178 179 188 208 207 207 197 181 134 149 114 99 104 122 121 113 105 88 93 85 100 119 130 141 153 161
344 344 344 342 337 338 337 336 335 331 322 295 238 173 232 229 119 228 175 170 179 192 199 210 214 229 140 126 156 118 119 117 118 123 122 114 118 111 106 118 126 140 146 152 155
346 340 344 341 338 336 337 335 339 358 352 38 143 135 236 200 89 156 159 180 188 199 187 186 174 230 157 116 130 133 130 137 134 138 129 123 97 101 130 136 138 142 149 144 145
347 340 342 342 338 334 336 332 333 336 37 128 137 237 263 198 206 160 158 161 177 191 227 158 202 137 139 120 144 171 162 162 163 163 155 259 116 134 149 143 141 147 152 159 161
346 340 338 341 337 332 333 324 316 321 136 150 221 249 143 136 173 168 170 162 168 170 146 154 199 131 147 167 169 183 185 199 165 193 173 272 124 146 161 157 151 167 165 175 172
343 341 334 342 336 331 330 320 280 5 16 247 261 247 198 188 149 161 170 164 167 160 168 197 194 173 187 192 193 190 218 190 189 188 210 215 115 152 167 165 164 167 174 180 185
341 342 332 338 334 328 317 280 227 183 209 271 73 305 140 128 143 173 162 169 177 181 188 205 214 209 186 211 262 195 219 195 199 162 208 202 153 161 165 175 166 167 178 186 188
339 341 329 333 331 320 297 276 55 328 294 248 244 254 209 180 164 166 177 178 182 191 200 185 221 212 230 198 223 233 211 210 135 197 219 160 175 166 176 178 182 175 177 187 180
337 338 330 330 329 291 265 281 301 253 259 212 200 204 183 192 185 172 191 198 194 196 194 200 202 152 186 195 205 206 216 205 217 183 213 173 185 192 192 188 186 203 193 190 190
336 336 334 331 322 321 271 185 312 197 271 171 194 190 171 186 199 173 195 190 198 196 195 221 139 181 197 193 214 196 222 249 195 191 209 205 234 192 194 203 200 193 199 195 189
334 334 331 331 298 265 45 307 287 236 266 135 145 143 158 189 147 181 192 200 189 181 189 184 181 186 194 192 207 90 140 163 186 212 160 189 258 107 190 208 208 206 194 201 193
331 329 328 331 250 257 285 292 214 227 237 160 150 172 173 201 169 155 184 229 250 171 214 153 171 195 173 139 159 130 126 134 192 197 222 228 219 262 188 231 218 202 204 196 195
327 320 310 268 263 257 301 216 234 240 131 174 182 172 186 180 170 174 189 196 186 182 180 163 176 148 153 119 143 180 173 178 203 202 243 89 238 259 288 195 235 205 203 193 195
325 317 295 249 242 250 271 221 253 235 234 100 203 189 193 175 183 184 185 191 217 213 183 186 174 173 185 178 180 202 204 241 211 236 231 140 241 243 340 297 218 234 205 197 194
328 316 264 269 212 198 228 214 233 247 31 239 178 199 195 182 188 190 198 202 191 217 208 205 196 149 184 160 194 173 214 302 306 259 270 236 192 267 210 230 216 223 219 196 192
321 294 247 206 179 179 233 230 247 287 326 247 231 201 200 191 202 199 193 207 201 203 240 196 211 187 155 157 165 235 184 197 218 259 254 180 255 241 180 230 217 219 211 192 191
277 276 60 193 164 195 227 218 233 260 278 275 252 209 234 197 202 195 187 185 206 194 214 222 236 162 167 208 210 182 206 230 305 317 298 249 190 117 323 162 206 212 203 195 192
288 243 62 174 195 208 231 218 206 246 232 260 275 271 222 210 203 209 215 212 180 171 200 219 209 219 211 135 279 221 214 198 224 184 229 307 301 113 180 175 215 217 196 198 198
295 284 183 213 213 202 224 236 241 228 240 281 265 246 235 204 207 210 207 182 175 193 209 183 223 216 189 188 179 222 217 227 226 247 270 269 272 122 170 220 239 234 201 198 198
280 237 168 208 314 286 212 229 207 164 240 278 289 281 234 194 212 191 191 165 192 217 52 198 227 219 218 222 217 209 223 225 234 233 241 217 273 283 299 273 251 246 241 209 204
264 81 6 189 179 261 228 327 227 205 188 256 217 246 295 223 181 190 190 149 173 156 195 212 227 226 231 250 240 228 214 219 228 241 259 286 317 293 302 295 296 282 251 217 206
325 330 340 359 273 244 174 169 253 139 315 164 278 320 254 250 347 232 235 211 188 170 181 209 233 214 230 227 229 235 236 212 225 234 246 262 268 301 292 280 276 268 256 231 217
360 292 284 105 269 237 93 211 80 322 121 50 341 300 217 64 327 307 302 297 304 293 185 197 192 209 218 195 212 229 202 205 202 215 233 242 292 324 302 293 286 283 267 246 226